This is the latest recevied weather packets stored in our database for station/object N0KWA. If no packets are shown the sender has not sent any weather packets the latest 10 day(s).
| Time | Temp. | Humidity | Pressure | Rain* | Wind** | Luminosity | Snow |
|---|---|---|---|---|---|---|---|
| 1788049246 | 28.89° C | 88% | 1017 hPa | 0 mm | - | 0 W/m² | - |
| 1788048945 | 28.89° C | 87% | 1016.7 hPa | 0 mm | - | 0 W/m² | - |
| 1788048641 | 28.89° C | 87% | 1017 hPa | 0 mm | - | 0 W/m² | - |
| 1788048338 | 28.89° C | 86% | 1016.8 hPa | 0 mm | - | 0 W/m² | - |
| 1788048033 | 28.89° C | 86% | 1016.6 hPa | 0 mm | - | 0 W/m² | - |
| 1788047730 | 28.89° C | 86% | 1016.7 hPa | 0 mm | - | 1 W/m² | - |
| 1788047427 | 29.44° C | 85% | 1016.7 hPa | 0 mm | - | 0 W/m² | - |
| 1788047120 | 29.44° C | 80% | 1016.4 hPa | 0 mm | - | 2 W/m² | - |
| 1788046815 | 29.44° C | 79% | 1016.5 hPa | 0 mm | - | 3 W/m² | - |
| 1788046514 | 30° C | 77% | 1016.5 hPa | 0 mm | - | 5 W/m² | - |
| 1788046210 | 30° C | 75% | 1016.5 hPa | 0 mm | - | 6 W/m² | - |
| 1788045907 | 30° C | 73% | 1016.5 hPa | 0 mm | - | 4 W/m² | - |
| 1788045603 | 30.56° C | 72% | 1016.5 hPa | 0 mm | - | 4 W/m² | - |
| 1788045297 | 30.56° C | 71% | 1016.5 hPa | 0 mm | - | 5 W/m² | - |
| 1788044993 | 30.56° C | 69% | 1016.5 hPa | 0 mm | - | 7 W/m² | - |
| 1788044691 | 31.11° C | 69% | 1016.7 hPa | 0 mm | - | 8 W/m² | - |
| 1788044387 | 31.11° C | 70% | 1016.8 hPa | 0 mm | - | 8 W/m² | - |
| 1788044082 | 31.11° C | 70% | 1016.7 hPa | 0 mm | - | 47 W/m² | - |
| 1788043778 | 31.67° C | 67% | 1016.8 hPa | 0 mm | - | 9 W/m² | - |
| 1788043477 | 31.67° C | 66% | 1016.7 hPa | 0 mm | - | 10 W/m² | - |
| 1788043173 | 32.22° C | 67% | 1017 hPa | 0 mm | - | 10 W/m² | - |
| 1788042868 | 32.22° C | 66% | 1016.8 hPa | 0 mm | - | 11 W/m² | - |
| 1788042567 | 32.22° C | 61% | 1016.7 hPa | 0 mm | - | 10 W/m² | - |
| 1788042266 | 32.78° C | 61% | 1016.9 hPa | 0 mm | - | 12 W/m² | - |
| 1788041963 | 32.78° C | 60% | 1016.9 hPa | 0 mm | - | 59 W/m² | - |
* Rain latest hour (hover to see other rain measurements)
** Current wind speed in m/s (hover to see current wind gust speed)